EW8472 Isla MX current weather conditions

sailwx.info

Wind from 265

Air temperature 18.9° C
Dewpoint 15.7° C

Last reported at 2018-Dec-17 05:00 UTC.
Time now 2018-Dec-17 05:34 UTC

Location: N 18°09' W 095°34'.
View on Google Maps.

See reports from other nearby stations

  
Tides and Currents Weather Stations Pressure Air Temp Water Temp Dewpoint Dewpoint Depression Visibility Wind Speed Wind Dir Waves Ship Positions
date/time (UTC)wind fromknots sea level pressurealtimeterstation pressurevisibilityair tempwater tempwave heightnotes
2018-Dec-17 05:00 265 18.9
2018-Dec-17 04:30 294 18.9
2018-Dec-17 04:01 294 18.9
2018-Dec-17 03:31 301 19.4
2018-Dec-17 03:01 238 19.4
2018-Dec-17 02:45 276 19.4
2018-Dec-17 02:30 287 19.4
2018-Dec-17 02:01 288 20.0
2018-Dec-17 01:30 305 20.0
2018-Dec-17 01:00 275 20.6
2018-Dec-17 00:31 277 20.6
2018-Dec-17 00:00 306 21.1
2018-Dec-16 23:31 332 21.1
2018-Dec-16 23:00 298 21.7
2018-Dec-16 22:45 305 21.7
2018-Dec-16 22:30 347 21.7
2018-Dec-16 22:00 313 22.2
2018-Dec-16 21:46 022 22.2
2018-Dec-16 21:16 053 22.2
2018-Dec-16 20:46 290 0 gusting 4 22.2
2018-Dec-16 20:17 277 22.2
2018-Dec-16 20:00 340 22.8
2018-Dec-16 19:31 355 0 gusting 6 22.2
2018-Dec-16 19:15 284 22.2
2018-Dec-16 19:01 350 0 gusting 5 22.2
2018-Dec-16 18:31 342 0 gusting 6 21.7
2018-Dec-16 18:00 321 1 gusting 5 21.1
2018-Dec-16 17:30 288 20.6
2018-Dec-16 17:01 295 0 gusting 5 20.6
2018-Dec-16 16:32 300 20.0
2018-Dec-16 16:16 244 19.4
2018-Dec-16 15:46 283 18.9
2018-Dec-16 15:16 292 18.3
2018-Dec-16 15:01 281 18.3
2018-Dec-16 14:31 285 17.8
2018-Dec-16 14:15 293 17.8
2018-Dec-16 13:45 294 17.8
2018-Dec-16 13:31 295 17.2
2018-Dec-16 13:15 287 17.2
2018-Dec-16 12:45 331 17.2
2018-Dec-16 12:15 331 17.2
2018-Dec-16 11:46 284 17.2
2018-Dec-16 11:30 286 17.2
2018-Dec-16 11:15 286 17.2
2018-Dec-16 10:46 293 17.2
2018-Dec-16 10:15 286 17.2
2018-Dec-16 10:01 291 17.2
2018-Dec-16 09:30 285 17.2
2018-Dec-16 09:00 251 17.2
2018-Dec-16 08:31 278 17.2
2018-Dec-16 08:15 296 17.2
2018-Dec-16 08:00 291 17.2
2018-Dec-16 07:30 285 17.2
2018-Dec-16 07:15 234 17.2
2018-Dec-16 06:46 302 17.8
2018-Dec-16 06:31 218 17.8
2018-Dec-16 06:01 207 17.8
2018-Dec-16 05:45 202 17.8
2018-Dec-16 05:15 195 17.8
2018-Dec-16 04:46 275 17.8
2018-Dec-16 04:30 188 17.8
2018-Dec-16 04:01 250 18.3
2018-Dec-16 03:30 264 18.3
2018-Dec-16 03:01 234 18.3
2018-Dec-16 02:35 253 18.3
2018-Dec-16 02:01 292 18.3
2018-Dec-16 01:46 219 18.3
2018-Dec-16 01:16 302 18.9
2018-Dec-16 01:00 293 18.9
2018-Dec-16 00:31 271 18.9
2018-Dec-16 00:15 340 18.9
2018-Dec-16 00:00 328 18.3
2018-Dec-15 23:45 288 18.3
2018-Dec-15 23:16 288 0 gusting 6 19.4
2018-Dec-15 23:01 017 20.0
2018-Dec-15 22:30 311 1 gusting 7 21.7
2018-Dec-15 22:00 107 0 gusting 4 22.2
2018-Dec-15 21:31 331 0 gusting 5 22.2
2018-Dec-15 21:16 206 22.2
2018-Dec-15 20:46 291 1 gusting 4 22.2
2018-Dec-15 20:30 299 1 gusting 9 22.2
2018-Dec-15 20:16 325 0 gusting 4 22.2
2018-Dec-15 20:00 298 22.2
2018-Dec-15 19:30 292 1 gusting 6 22.2
2018-Dec-15 19:01 295 2 gusting 6 22.2
2018-Dec-15 18:45 294 1 gusting 6 22.2
2018-Dec-15 18:15 249 0 gusting 6 21.7
2018-Dec-15 18:01 298 21.7
2018-Dec-15 17:31 298 1 gusting 6 21.7
2018-Dec-15 17:15 257 0 gusting 4 21.7
2018-Dec-15 16:45 268 0 gusting 5 21.1
2018-Dec-15 16:30 293 1 gusting 6 21.1
2018-Dec-15 16:01 302 3 gusting 7 20.0
2018-Dec-15 15:31 287 0 gusting 3 18.9
2018-Dec-15 15:16 253 18.3
2018-Dec-15 15:00 299 18.3
2018-Dec-15 14:45 292 0 gusting 4 17.8
2018-Dec-15 14:16 300 17.2
2018-Dec-15 13:46 290 16.7
2018-Dec-15 13:30 294 16.7
2018-Dec-15 13:00 290 16.7
2018-Dec-15 12:32 312 16.7
2018-Dec-15 12:16 319 16.7
2018-Dec-15 11:45 293 16.1
2018-Dec-15 11:30 288 16.1
2018-Dec-15 11:00 314 16.1
2018-Dec-15 10:30 026 16.1
2018-Dec-15 10:01 313 16.1
2018-Dec-15 09:46 287 0 gusting 3 16.1
2018-Dec-15 09:30 260 16.7
2018-Dec-15 09:00 295 0 gusting 6 16.7
2018-Dec-15 08:31 304 0 gusting 5 16.7
2018-Dec-15 08:00 298 0 gusting 3 16.7
2018-Dec-15 07:31 278 16.7
2018-Dec-15 07:01 298 0 gusting 3 16.7
2018-Dec-15 06:30 289 0 gusting 4 17.2
2018-Dec-15 06:02 298 0 gusting 4 17.8
2018-Dec-15 05:45 284 0 gusting 7 17.8
2018-Dec-15 05:16 334 0 gusting 7 18.9
2018-Dec-15 05:00 321 18.9